DW9433 Weather Reports


Display with metric or nautical units.
time (UTC)temp
F
wind
direction
speed
MPH
gust
MPH
rain 1hr
in
rain 24hr
in
rain mn
in
humidity
%
barometer
mb
20260504050008 60 195 0.0 0.0 0.00 0.00 0.00 66 1014.8
20260504044514 61 195 0.0 0.0 0.00 0.00 0.00 65 1014.8
20260504043015 60 195 0.0 0.0 0.00 0.00 0.00 65 1014.8
20260504041507 60 195 0.0 0.0 0.00 0.00 0.00 66 1014.8
20260504040008 59 195 0.0 0.0 0.00 0.00 0.00 68 1014.8
20260504034507 59 195 0.0 0.0 0.00 0.00 0.00 70 1014.9
20260504033007 59 195 0.0 0.0 0.00 0.00 0.00 70 1015.0
20260504031505 59 195 0.0 0.0 0.00 0.00 0.00 69 1015.2
20260504030005 60 195 0.0 0.0 0.00 0.00 0.00 67 1015.2
20260504024508 60 195 0.0 0.0 0.00 0.00 0.00 66 1015.2
20260504023008 61 195 0.0 0.0 0.00 0.00 0.00 65 1015.0
20260504021505 62 195 0.0 0.0 0.00 0.00 0.00 62 1015.0
20260504020007 63 195 0.0 0.0 0.00 0.00 0.00 60 1014.9
20260504014504 65 195 0.0 0.0 0.00 0.00 0.00 56 1014.8
20260504013003 66 195 0.0 0.0 0.00 0.00 0.00 52 1014.6
20260504011503 68 195 0.0 0.0 0.00 0.00 0.00 49 1014.7
20260504010002 69 195 0.0 0.0 0.00 0.00 0.00 46 1014.6
20260504004501 70 195 0.0 0.0 0.00 0.00 0.00 44 1014.7
20260504003000 71 195 0.0 0.0 0.00 0.00 0.00 43 1014.7
20260504001618 71 195 0.0 0.0 0.00 0.00 0.00 41 1014.7
20260504000059 72 97 0.0 0.0 0.00 0.00 0.00 40 1014.7
20260503234558 72 184 0.0 0.0 0.00 0.00 0.00 39 1014.8
20260503233057 73 186 0.0 0.0 0.00 0.00 0.00 39 1015.0
20260503231555 73 140 0.0 1.0 0.00 0.00 0.00 37 1015.1
20260503230058 73 169 0.0 0.0 0.00 0.00 0.00 37 1015.2
20260503224553 73 205 0.0 3.0 0.00 0.00 0.00 36 1015.4
20260503223051 74 248 0.0 4.0 0.00 0.00 0.00 36 1015.6
20260503221549 74 119 0.0 4.0 0.00 0.00 0.00 36 1015.7
20260503220051 74 218 0.0 3.0 0.00 0.00 0.00 36 1015.9
20260503214546 75 180 1.0 5.0 0.00 0.00 0.00 34 1016.1
20260503213050 75 130 0.0 3.0 0.00 0.00 0.00 33 1016.3
20260503211541 75 146 0.0 3.0 0.00 0.00 0.00 35 1016.6
20260503210040 76 257 0.0 3.0 0.00 0.00 0.00 35 1016.8
20260503204538 76 231 0.0 5.0 0.00 0.00 0.00 31 1017.1
20260503203035 75 168 0.0 0.0 0.00 0.00 0.00 34 1017.3
20260503201534 75 211 1.0 7.0 0.00 0.00 0.00 33 1017.5
20260503200031 75 167 0.0 0.0 0.00 0.00 0.00 35 1017.8
20260503194529 75 160 0.0 4.0 0.00 0.00 0.00 33 1018.2
20260503193032 74 172 0.0 4.0 0.00 0.00 0.00 37 1018.3
20260503191524 74 291 0.0 3.0 0.00 0.00 0.00 36 1018.6
20260503190022 74 154 0.0 6.0 0.00 0.00 0.00 37 1018.9
20260503184519 73 42 0.0 4.0 0.00 0.00 0.00 39 1019.1
20260503183024 72 220 0.0 2.0 0.00 0.00 0.00 39 1019.3
20260503181513 72 209 0.0 3.0 0.00 0.00 0.00 39 1019.6
20260503180017 72 196 0.0 3.0 0.00 0.00 0.00 39 1020.0
20260503174510 71 174 1.0 8.0 0.00 0.00 0.00 41 1020.1
20260503173010 71 172 1.0 7.0 0.00 0.00 0.00 39 1020.5
20260503171508 71 137 0.0 3.0 0.00 0.00 0.00 42 1020.7
20260503081611 45 28 0.0 0.0 0.00 0.00 0.00 89 1020.4
20260503071536 47 28 0.0 0.0 0.00 0.00 0.00 86 1020.3